YACHTS Weather Reports


time (UTC)temp
F
wind
direction
speed
knots
gust
knots
rain 1hr
in
rain 24hr
in
rain mn
in
humidity
%
barometer
mb
20260905004454 63 0 0.0 3.5 0.00 1.48 0.75 92 1012.7
20260905003941 62 180 0.0 3.5 0.00 1.48 0.75 92 1012.6
20260905003428 63 0 0.0 0.0 0.00 1.48 0.75 92 1012.5
20260905002915 62 0 0.0 0.0 0.00 1.48 0.75 91 1012.5
20260905002402 63 228 0.0 3.5 0.00 1.48 0.75 91 1012.5
20260905001849 63 0 0.0 3.5 0.00 1.48 0.75 92 1012.5
20260905000823 63 256 0.9 7.0 0.00 1.48 0.75 92 1012.5
20260905000310 63 264 0.0 7.0 0.00 1.48 0.75 93 1012.4
20260904235757 62 257 0.0 7.0 0.00 1.49 0.75 93 1012.4
20260904235244 62 298 0.0 4.3 0.00 1.49 0.75 93 1012.3
20260904234218 62 313 5.2 7.8 0.01 1.49 0.75 93 1012.2
20260904233705 63 235 5.2 7.8 0.01 1.49 0.75 93 1012.3
20260904233152 63 287 1.7 7.0 0.01 1.49 0.75 93 1012.2
20260904232639 63 271 3.5 7.8 0.01 1.49 0.75 93 1012.2
20260904232126 63 0 0.0 7.8 0.01 1.49 0.75 94 1012.1
20260904231613 62 0 0.0 7.8 0.01 1.49 0.75 94 1012.1
20260904231100 62 273 2.6 9.6 0.01 1.49 0.75 93 1012.1
20260904230547 62 236 1.7 9.6 0.01 1.49 0.75 94 1012.2
20260904230034 61 252 4.3 9.6 0.01 1.49 0.75 94 1012.2
20260904225521 61 275 5.2 8.7 0.01 1.48 0.75 94 1012.1
20260904225008 60 329 5.2 8.7 0.01 1.48 0.75 94 1012.1
20260904224455 59 0 1.7 7.8 0.00 1.48 0.75 94 1012.2
20260904223942 60 252 2.6 7.8 0.00 1.48 0.74 93 1012.2
20260904223429 61 254 0.0 7.8 0.00 1.48 0.74 93 1012.1
20260904222916 61 257 0.9 5.2 0.00 1.48 0.74 94 1012.1
20260904222403 61 0 0.0 0.0 0.00 1.48 0.74 94 1012.0
20260904221337 60 259 2.6 5.2 0.00 1.48 0.74 94 1012.0
20260904220824 61 226 0.0 5.2 0.00 1.48 0.74 94 1012.1
20260904220311 61 170 0.0 1.7 0.00 1.48 0.74 94 1012.1
20260904215758 61 0 0.0 0.0 0.00 1.48 0.74 94 1012.0
20260904215245 62 0 0.0 5.2 0.00 1.48 0.74 93 1012.0
20260904214219 62 201 0.0 5.2 0.00 1.48 0.74 94 1011.9
20260904213706 62 0 0.0 0.0 0.00 1.48 0.74 95 1011.9
20260904213153 61 0 0.0 0.0 0.00 1.48 0.74 95 1011.9
20260904212640 60 0 0.0 0.0 0.00 1.48 0.74 95 1011.8
20260904212127 59 0 0.0 4.3 0.00 1.48 0.74 95 1011.8
20260904211614 59 0 0.0 4.3 0.00 1.48 0.74 95 1011.7
20260904211101 59 0 0.0 4.3 0.00 1.48 0.74 95 1011.7
20260904210548 60 207 0.0 2.6 0.00 1.48 0.74 95 1011.7
20260904210035 60 0 0.0 4.3 0.00 1.48 0.74 95 1011.7
20260904205522 60 0 0.0 4.3 0.00 1.54 0.74 94 1011.8
20260904205009 62 0 0.0 4.3 0.00 1.54 0.74 95 1011.7
20260904204456 62 0 0.0 0.0 0.00 1.54 0.74 95 1011.6
20260904203943 61 0 0.0 0.0 0.00 1.54 0.74 96 1011.7
20260904203430 58 0 0.0 0.0 0.00 1.54 0.74 96 1011.7
20260904202917 59 0 0.0 0.0 0.00 1.54 0.74 96 1011.8
20260904202404 58 0 0.0 0.0 0.00 1.54 0.74 96 1011.8
20260904201851 58 0 0.0 0.0 0.00 1.54 0.74 95 1011.7
20260904200825 58 0 0.0 1.7 0.00 1.54 0.74 95 1011.8
20260904200313 59 235 0.0 1.7 0.00 1.54 0.74 95 1011.7
20260904195759 60 0 0.0 0.0 0.00 1.56 0.74 95 1011.6
20260904195245 59 0 0.0 0.0 0.00 1.56 0.74 96 1011.5
20260904194733 58 0 0.0 0.0 0.00 1.56 0.74 96 1011.5
20260904194220 58 0 0.0 0.0 0.00 1.56 0.74 96 1011.5
20260904193707 58 0 0.0 0.0 0.01 1.56 0.74 96 1011.5
20260904193153 57 0 0.0 0.0 0.01 1.56 0.74 96 1011.5
20260904192641 57 0 0.0 0.0 0.01 1.56 0.74 96 1011.5
20260904192127 58 0 0.0 0.0 0.01 1.56 0.74 96 1011.5
20260904191614 58 0 0.0 0.0 0.01 1.56 0.74 96 1011.5
20260904191101 58 0 0.0 0.0 0.01 1.56 0.74 96 1011.6
20260904190548 58 0 0.0 0.0 0.01 1.56 0.74 96 1011.5
20260904190035 58 0 0.0 0.0 0.01 1.56 0.74 96 1011.5
20260904185522 58 0 0.0 0.0 0.01 1.75 0.74 96 1011.5
20260904184456 58 0 0.0 0.0 0.01 1.75 0.74 96 1011.4
20260904183943 57 0 0.0 0.0 0.01 1.75 0.74 96 1011.3
20260904183430 57 0 0.0 0.0 0.00 1.75 0.73 96 1011.2
20260904182917 56 0 0.0 0.0 0.00 1.75 0.73 96 1011.2
20260904182404 57 0 0.0 0.0 0.00 1.75 0.73 96 1011.2
20260904181851 56 0 0.0 0.0 0.00 1.75 0.73 96 1011.2
20260904180312 56 0 0.0 0.0 0.01 1.75 0.73 96 1011.0
20260904175759 56 0 0.0 0.0 0.01 1.80 0.73 96 1010.9
20260904175246 56 0 0.0 0.0 0.01 1.80 0.73 96 1010.8
20260904174733 56 0 0.0 0.0 0.02 1.80 0.73 96 1010.8
20260904173707 56 0 0.0 0.0 0.03 1.80 0.73 96 1010.6
20260904173154 55 0 0.0 0.0 0.03 1.80 0.73 96 1010.5
20260904172641 56 0 0.0 0.0 0.05 1.80 0.73 96 1010.5
20260904172129 56 0 0.0 0.0 0.05 1.80 0.73 96 1010.4
20260904171102 55 0 0.0 0.0 0.06 1.80 0.73 96 1010.4
20260904170549 56 0 0.0 0.0 0.05 1.80 0.72 96 1010.5
20260904170036 55 0 0.0 0.0 0.05 1.80 0.72 96 1010.4
20260904165010 55 0 0.0 0.0 0.05 1.76 0.72 96 1010.3
20260904164457 55 0 0.0 0.0 0.04 1.76 0.71 96 1010.3
20260904163944 55 0 0.0 0.0 0.04 1.76 0.71 96 1010.2
20260904163431 54 0 0.0 0.0 0.03 1.76 0.71 96 1010.3
20260904162918 55 0 0.0 0.0 0.02 1.76 0.70 96 1010.2
20260904162405 55 0 0.0 0.0 0.02 1.76 0.70 96 1010.2
20260904161852 55 0 0.0 0.0 0.03 1.76 0.68 96 1010.2
20260904160314 54 0 0.0 0.0 0.04 1.76 0.67 96 1010.2
20260904155800 55 0 0.0 0.0 0.05 1.72 0.67 96 1010.2
20260904155247 55 0 0.0 0.0 0.05 1.72 0.67 96 1010.1
20260904154734 55 0 0.0 0.0 0.07 1.72 0.67 96 1010.1
20260904154221 54 0 0.0 0.0 0.07 1.72 0.67 96 1010.1
20260904153155 54 0 0.0 0.0 0.07 1.72 0.67 96 1009.9
20260904152129 54 0 0.0 0.0 0.06 1.72 0.66 96 1009.9
20260904151616 55 0 0.0 0.0 0.04 1.72 0.65 96 1009.9
20260904151103 54 0 0.0 0.0 0.04 1.72 0.64 96 1009.8
20260904150037 54 0 0.0 0.0 0.03 1.72 0.63 96 1009.7
20260904145524 54 0 0.0 0.0 0.03 1.69 0.63 96 1009.6
20260904145011 54 0 0.0 0.0 0.03 1.69 0.62 96 1009.5
20260904144458 54 0 0.0 0.0 0.02 1.69 0.61 96 1009.5
20260904143945 54 0 0.0 0.0 0.02 1.69 0.60 96 1009.4
20260904143432 54 0 0.0 0.0 0.02 1.69 0.60 96 1009.3
20260904142919 54 0 0.0 0.0 0.02 1.69 0.60 96 1009.2
20260904142406 54 0 0.0 0.0 0.02 1.69 0.60 96 1009.1
20260904141853 54 0 0.0 0.0 0.04 1.69 0.60 96 1009.0
20260904141341 54 0 0.0 0.0 0.04 1.69 0.60 96 1009.1
20260904140828 54 0 0.0 0.0 0.06 1.69 0.60 96 1008.9
20260904140314 54 0 0.0 0.0 0.06 1.69 0.60 96 1008.8
20260904135801 55 0 0.0 0.0 0.10 1.63 0.59 96 1008.7
20260904135248 54 0 0.0 0.0 0.10 1.63 0.59 96 1008.7
20260904134735 55 0 0.0 7.8 0.09 1.63 0.59 96 1008.7
20260904134222 55 0 0.0 7.8 0.09 1.63 0.58 96 1008.6
20260904133709 54 176 1.7 7.8 0.09 1.63 0.58 96 1008.5
20260904133156 54 0 0.0 6.1 0.09 1.63 0.58 96 1008.4
20260904132643 54 0 0.0 6.1 0.09 1.63 0.58 96 1008.3
20260904132130 54 142 0.0 6.1 0.09 1.63 0.58 96 1008.3
20260904131617 55 0 0.0 0.0 0.07 1.63 0.58 96 1008.2
20260904131104 55 0 0.0 7.8 0.07 1.63 0.56 96 1008.1
20260904130551 55 0 0.0 7.8 0.06 1.63 0.54 96 1008.0
20260904125525 54 0 0.0 5.2 0.02 1.58 0.52 96 1007.9
20260904125012 54 0 0.0 5.2 0.02 1.58 0.49 96 1007.9
20260904124459 54 0 0.0 5.2 0.04 1.58 0.49 96 1007.9
20260904123946 54 0 0.0 0.0 0.04 1.58 0.49 96 1007.8
20260904123433 54 0 0.0 10.4 0.18 1.58 0.49 96 1007.9
20260904122920 55 0 0.0 10.4 0.22 1.58 0.49 96 1007.9
20260904122407 54 133 0.0 10.4 0.22 1.58 0.49 96 1007.8
20260904121854 54 0 0.0 0.0 0.25 1.58 0.49 96 1007.7
20260904121341 54 0 0.0 0.0 0.25 1.58 0.49 96 1007.8
20260904120830 54 0 0.0 2.6 0.26 1.58 0.49 96 1007.6
20260904120315 53 0 0.0 2.6 0.26 1.58 0.49 96 1007.6
20260904115802 54 0 0.0 2.6 0.29 1.57 0.48 96 1007.5
20260904115249 54 0 0.0 0.0 0.29 1.57 0.47 96 1007.3
20260904114736 54 0 0.0 2.6 0.33 1.57 0.47 96 1007.2
20260904114223 54 114 0.0 2.6 0.33 1.57 0.46 96 1007.1
20260904113710 54 0 0.0 2.6 0.21 1.57 0.43 96 1006.9
20260904113157 53 85 0.0 2.6 0.21 1.57 0.34 96 1007.1
20260904112644 54 0 0.0 0.0 0.18 1.57 0.29 96 1007.1
20260904112131 54 0 0.0 0.0 0.18 1.57 0.27 96 1007.1
20260904111618 53 0 0.0 0.0 0.15 1.57 0.26 96 1007.0
20260904105526 54 0 0.0 0.0 0.10 1.49 0.20 96 1006.7
20260904105013 54 0 0.0 0.0 0.10 1.49 0.18 96 1006.8
20260904104500 53 0 0.0 0.0 0.07 1.49 0.14 96 1007.1
20260904103947 53 0 0.0 0.0 0.07 1.49 0.12 96 1007.0
20260904103434 54 0 0.0 0.0 0.07 1.49 0.11 96 1007.0
20260904102921 54 0 0.0 0.0 0.07 1.49 0.10 95 1007.0
20260904102408 53 0 0.0 0.0 0.07 1.49 0.09 96 1006.9
20260904101855 53 0 0.0 0.0 0.07 1.49 0.09 96 1006.9
20260904101342 53 0 0.0 0.0 0.07 1.49 0.09 95 1006.7
20260904100829 54 0 0.0 0.0 0.07 1.49 0.09 95 1006.9
20260904100316 53 0 0.0 0.0 0.07 1.49 0.09 95 1006.9
20260904095803 53 0 0.0 0.0 0.06 1.43 0.09 95 1006.9
20260904095250 54 0 0.0 0.0 0.06 1.43 0.08 95 1007.0
20260904094737 54 0 0.0 0.0 0.03 1.43 0.07 96 1007.0
20260904094224 53 0 0.0 0.0 0.03 1.43 0.05 95 1007.1
20260904093711 53 0 0.0 0.0 0.03 1.43 0.05 95 1007.2
20260904093158 53 0 0.0 0.0 0.03 1.43 0.04 95 1007.1
20260904092132 53 0 0.0 0.0 0.02 1.43 0.02 95 1007.2
20260904091619 53 0 0.0 0.0 0.02 1.43 0.02 95 1007.2
20260904091106 53 0 0.0 0.0 0.02 1.43 0.02 95 1007.2
20260904090553 53 0 0.0 0.0 0.02 1.43 0.02 95 1007.2
20260904090040 54 0 0.0 0.0 0.02 1.43 0.02 95 1007.3
20260904085527 54 0 0.0 0.0 0.02 1.41 0.02 95 1007.3
20260904085014 53 0 0.0 0.0 0.02 1.41 0.02 95 1007.3
20260904084501 53 0 0.0 0.0 0.02 1.41 0.02 95 1007.3
20260904083948 54 0 0.0 0.0 0.02 1.41 0.02 95 1007.2
20260904083435 53 0 0.0 0.0 0.00 1.41 0.02 95 1007.2
20260904082922 53 0 0.0 0.0 0.01 1.41 0.00 95 1007.2
20260904082409 53 0 0.0 0.0 0.01 1.41 0.00 95 1007.2
20260904081856 53 0 0.0 0.0 0.02 1.41 0.00 95 1007.2
20260904081343 53 0 0.0 0.0 0.02 1.41 0.00 95 1007.1
20260904080830 53 0 0.0 0.0 0.02 1.41 0.00 95 1007.0
20260904080317 53 0 0.0 0.0 0.02 1.41 0.00 95 1006.9
20260904075804 53 0 0.0 0.0 0.02 1.41 0.00 95 1007.0
20260904075251 54 0 0.0 0.0 0.02 1.41 1.41 95 1007.0
20260904074738 54 0 0.0 0.0 0.03 1.41 1.41 95 1007.0
20260904074225 54 0 0.0 0.0 0.03 1.41 1.41 95 1007.0
20260904073712 54 0 0.0 0.0 0.03 1.41 1.41 95 1007.0
20260904073158 54 0 0.0 0.0 0.03 1.41 1.41 95 1007.0
20260904072646 53 0 0.0 0.0 0.03 1.41 1.41 95 1007.0
20260904072133 54 0 0.0 0.0 0.03 1.40 1.40 95 1007.0
20260904071620 54 0 0.0 0.0 0.07 1.40 1.40 95 1007.0
20260904071106 54 0 0.0 0.0 0.07 1.39 1.39 95 1006.9
20260904070553 54 0 0.0 0.0 0.21 1.39 1.39 95 1006.8
20260904070040 54 0 0.0 0.0 0.21 1.39 1.39 95 1006.8
20260904065528 54 0 0.0 0.0 0.27 1.39 1.39 95 1006.8
20260904065014 54 0 0.0 0.0 0.27 1.39 1.39 95 1006.7
20260904064502 54 0 0.0 0.0 0.27 1.38 1.38 94 1006.6
20260904063948 54 0 0.0 5.2 0.27 1.38 1.38 94 1006.6
20260904063435 54 0 0.0 5.2 0.29 1.38 1.38 94 1006.7
20260904062922 54 100 1.7 5.2 0.28 1.38 1.38 94 1006.6
20260904062409 54 0 0.0 0.0 0.28 1.37 1.37 94 1006.7
20260904062102 54 0 0.0 0.0 0.24 1.36 1.37 94 1006.5
20260904061856 54 0 0.0 0.0 0.24 1.36 1.37 94 1006.5
20260904061343 54 0 0.0 0.0 0.24 1.35 1.35 94 1006.6
20260904060830 54 0 0.0 0.0 0.13 1.28 1.30 94 1006.7
20260904060317 54 0 0.0 0.0 0.13 1.22 1.23 94 1006.7
20260904055804 54 0 0.0 0.0 0.11 1.16 1.17 94 1006.7
20260904055251 54 0 0.0 0.0 0.11 1.13 1.13 94 1006.6
20260904054738 54 0 0.0 5.2 0.11 1.12 1.12 94 1006.4
20260904054226 54 0 0.0 5.2 0.11 1.11 1.11 94 1006.5
20260904053712 54 142 0.0 5.2 0.10 1.10 1.11 94 1006.6
20260904052133 54 0 0.0 0.0 0.10 1.09 1.09 94 1006.8
20260904051107 53 0 0.0 0.0 0.10 1.08 1.08 94 1007.0
20260904050554 54 0 0.0 0.0 0.09 1.07 1.07 94 1007.2
20260904045528 54 0 0.0 0.0 0.07 1.04 1.04 94 1007.2
20260904045016 53 0 0.0 0.0 0.07 1.01 1.02 94 1007.3
20260904043949 54 0 0.0 0.0 0.09 1.00 1.00 94 1007.1
20260904043436 54 0 0.0 0.0 0.10 0.99 0.99 94 1007.1
20260904042923 54 0 0.0 0.0 0.12 0.99 0.99 93 1007.1
20260904042410 54 0 0.0 3.5 0.12 0.99 0.99 93 1007.2
20260904041858 54 0 0.0 3.5 0.12 0.99 0.99 93 1007.2
20260904041344 54 92 0.0 3.5 0.12 0.99 0.99 93 1007.2
20260904040831 54 0 0.0 0.0 0.11 0.98 0.98 93 1007.2
20260904040318 54 0 0.0 0.0 0.11 0.97 0.97 93 1007.3
20260904035805 55 0 0.0 3.5 0.09 0.95 0.95 93 1007.4
20260904035408 54 232 0.0 3.5 0.09 0.95 0.95 93 1007.5
20260904035252 54 232 0.0 3.5 0.09 0.95 0.95 93 1007.5
20260904034739 55 0 0.0 3.5 0.07 0.94 0.94 93 1007.6
20260904034226 54 232 0.0 7.0 0.07 0.91 0.92 93 1007.5
20260904033713 54 184 0.0 7.0 0.07 0.90 0.90 93 1007.4
20260904033200 55 175 0.0 7.0 0.07 0.89 0.89 93 1007.4
20260904032647 55 233 0.9 7.0 0.06 0.88 0.88 93 1007.4
20260904032135 55 201 2.6 11.3 0.06 0.87 0.87 93 1007.4
20260904031622 55 242 0.0 11.3 0.05 0.86 0.87 93 1007.5
20260904031108 55 141 0.0 11.3 0.05 0.86 0.86 93 1007.4
20260904030555 55 236 0.9 12.2 0.06 0.86 0.86 93 1007.3
20260904025529 55 0 1.7 12.2 0.06 0.85 0.85 92 1007.2
20260904025016 55 191 3.5 12.2 0.06 0.85 0.85 92 1007.4
20260904024503 55 247 2.6 7.8 0.05 0.85 0.85 92 1007.4
20260904023950 55 0 0.0 0.0 0.05 0.84 0.84 92 1007.5
20260904023438 55 142 4.3 13.9 0.05 0.82 0.82 92 1007.5
20260904022924 56 302 3.5 13.9 0.06 0.81 0.81 92 1007.5
20260904022411 56 214 1.7 13.9 0.06 0.81 0.81 92 1007.4
20260904021858 56 254 0.0 11.3 0.06 0.81 0.81 92 1007.5
20260904021345 56 217 2.6 11.3 0.06 0.81 0.81 92 1007.6
20260904020832 56 211 4.3 11.3 0.05 0.81 0.81 92 1007.7
20260904020319 56 183 0.0 9.6 0.05 0.79 0.79 92 1007.6
20260904015806 56 159 2.6 8.7 0.07 0.79 0.79 92 1007.5
20260904014740 56 137 0.9 9.6 0.07 0.79 0.79 92 1007.5
20260904013715 55 189 4.3 9.6 0.06 0.79 0.79 92 1007.6
20260904013201 56 197 0.0 7.0 0.06 0.77 0.77 91 1007.6
20260904012648 55 140 1.7 13.9 0.07 0.76 0.76 91 1007.6
20260904012135 56 173 3.5 13.9 0.07 0.75 0.75 91 1007.6
20260904011622 56 173 4.3 13.9 0.07 0.75 0.75 91 1007.6
20260904011109 56 116 1.7 12.2 0.07 0.75 0.75 91 1007.6
20260904010556 55 235 0.9 10.4 0.06 0.75 0.75 91 1007.6
20260904010043 55 137 0.0 11.3 0.06 0.74 0.75 91 1007.7
20260904005530 56 158 0.0 11.3 0.04 0.73 0.73 91 1007.7
20260904005017 56 5 1.7 11.3 0.04 0.72 0.72 91 1007.6